Vorticity
nan nan nan nan nan nan nan nan nan nan nan nan nan nan nan nan nan nan nan nan nan nan nan nan nan nan nan nan nan nan nan nan
nan 7 6 6 8 8 6 5 6 7 5 4 6 7 6 5 5 5 5 5 5 6 6 5 5 5 5 6 5 7 6 nan
nan 8 7 6 6 9 9 7 6 5 6 7 4 6 9 9 8 7 6 6 6 5 5 6 6 8 8 7 9 8 7 nan
nan 8 6 5 6 8 7 7 8 8 8 8 6 6 8 9 10 10 8 7 8 8 8 8 7 9 9 9 9 7 8 nan
nan 7 9 6 5 5 6 7 8 9 8 6 6 6 7 7 7 10 11 10 8 9 10 10 9 6 6 8 6 7 7 nan
nan 7 6 5 5 8 7 7 6 7 9 7 5 6 7 8 6 8 7 10 8 7 8 8 7 7 7 6 6 6 6 nan
nan 6 6 6 4 5 7 7 7 7 8 7 5 6 6 6 7 7 7 7 8 7 7 8 7 8 7 7 6 6 6 nan
nan 7 6 5 6 4 5 7 8 8 8 9 6 4 6 6 8 7 7 7 8 8 8 7 8 8 7 9 8 6 7 nan
nan 8 8 6 5 6 6 8 8 7 8 10 9 7 7 7 7 8 8 9 8 7 7 7 8 8 8 7 9 8 8 nan
nan 9 8 6 6 5 6 7 7 8 8 10 10 8 7 7 7 8 9 8 7 7 8 7 8 7 8 8 8 9 8 nan
nan 9 8 7 6 6 9 7 7 8 7 9 10 8 7 6 6 7 8 7 7 7 7 8 7 8 8 7 9 8 8 nan
nan 9 8 8 8 8 8 7 8 8 7 10 10 8 7 5 6 8 7 6 6 8 8 6 7 9 10 8 8 7 8 nan
nan 7 7 6 7 6 8 8 6 8 11 9 7 9 8 6 6 8 7 8 8 6 8 7 8 8 9 12 12 12 9 nan
nan 7 7 4 4 7 9 12 11 10 10 11 9 7 6 7 8 7 7 7 9 8 6 6 9 9 5 7 9 13 16 nan
nan 14 9 7 4 3 5 6 12 14 10 9 12 9 10 6 7 7 8 8 8 9 9 6 6 8 9 3 7 7 8 nan
nan 16 13 10 10 9 7 2 3 8 11 12 14 13 8 6 11 10 7 8 9 9 10 10 8 5 9 9 6 6 2 nan
nan 15 15 15 12 7 7 7 8 10 13 13 10 13 10 11 8 10 9 9 10 10 8 10 7 9 6 9 9 7 8 nan
nan 16 17 17 14 12 10 8 7 7 9 9 7 9 11 16 14 12 12 12 13 12 12 12 11 11 9 8 9 8 11 nan
nan 14 14 17 17 14 12 12 10 9 6 9 10 7 9 11 12 11 12 11 12 12 12 11 13 14 14 14 12 12 9 nan
nan nan nan nan nan nan nan nan nan nan nan nan nan nan nan nan nan nan nan nan nan nan nan nan nan nan nan nan nan nan nan nan
CAPE
158 193 317 398 480 551 555 599 530 530 716 881 1031 923 850 790 789 852 925 931 972 1016 947 753 566 412 273 128 23 1 0 0
69 122 221 218 219 324 357 389 374 393 472 563 667 657 629 615 531 615 734 801 830 814 699 553 435 295 153 69 11 4 0 0
9 51 106 156 115 177 258 306 283 313 365 406 423 341 360 405 373 319 531 528 560 606 560 492 395 277 130 37 12 0 0 0
0 25 75 96 144 142 159 142 202 170 186 219 228 161 141 238 282 327 357 368 344 354 393 372 297 54 0 1 0 0 0 0
0 0 11 55 48 98 169 125 145 109 92 87 99 82 79 174 112 183 179 235 122 173 135 120 61 2 0 0 0 0 0 0
0 0 0 1 1 66 86 105 115 99 71 49 52 25 0 7 48 0 5 0 8 0 0 0 0 0 0 0 0 0 0 0
0 0 0 0 0 7 14 31 44 39 35 32 22 0 0 0 0 0 0 0 0 0 0 0 0 0 0 0 0 0 0 0
0 0 0 0 0 0 0 0 0 14 9 11 6 0 0 0 0 0 0 0 0 0 0 0 0 0 0 0 0 0 0 0
0 0 0 0 0 0 0 0 0 0 0 0 0 0 0 0 0 0 0 0 0 0 0 0 0 0 0 0 0 0 0 0
94 34 0 0 0 0 0 0 0 0 0 0 0 0 0 0 0 0 0 0 0 0 0 0 0 0 0 0 0 0 0 0
350 251 70 0 0 0 0 0 0 0 0 0 0 0 0 0 0 0 0 0 0 0 0 0 0 0 0 0 0 0 0 0
334 436 431 159 5 0 0 0 0 0 0 0 0 0 0 0 0 0 0 0 0 0 0 0 0 12 32 49 18 1 8 55
270 411 709 477 228 97 26 0 0 8 4 1 0 0 0 10 16 35 26 40 84 81 84 83 119 67 132 287 281 124 45 139
96 299 666 733 569 466 360 274 200 173 142 82 57 21 26 61 73 115 142 239 296 272 206 310 218 63 322 246 400 350 250 229
0 58 390 811 838 657 512 465 499 590 485 347 217 152 179 186 252 306 302 302 437 414 448 445 653 401 289 466 431 421 141 117
0 0 22 617 893 826 814 918 945 987 1015 868 619 415 502 351 599 479 487 579 639 729 533 480 463 778 320 388 525 460 609 771
0 0 0 236 965 1049 937 1063 1100 996 1110 1072 725 532 595 636 878 869 863 854 961 1040 1006 755 764 964 1105 949 475 571 611 611
0 42 78 587 1042 1181 1201 1243 1069 1152 1169 1079 825 623 655 765 881 1069 1089 1180 1262 1124 1022 1104 1162 981 1086 1147 1148 969 738 511
11 26 534 957 1202 1338 1415 1231 1135 1184 998 822 975 962 432 211 166 80 33 10 3 92 266 232 246 603 717 894 912 964 736 507
11 272 818 1153 1217 1198 989 916 907 730 748 748 386 111 7 2 0 0 0 0 0 0 0 0 1 1 2 1 3 3 3 22